CAPE
0 0 0 0 0 0 0 0 0 0 0 0 0 0 0 0 0 0 0 0 0 0 0 0 0 0 0 0 0 0 0 0 0 0 0 0 0 0 0 0 0 0 0 0
0 0 0 0 0 0 0 0 0 0 0 0 0 0 0 0 0 0 0 0 0 0 0 0 0 0 0 0 0 0 0 0 0 0 0 0 0 0 0 0 0 0 0 0
0 0 0 0 0 0 0 0 0 0 0 0 0 0 0 0 0 0 0 0 0 0 0 0 0 0 0 0 0 0 0 0 0 0 0 0 0 0 0 0 0 0 0 0
0 0 0 0 0 0 0 0 0 0 0 0 0 0 0 0 0 0 0 0 0 0 0 0 0 0 0 0 0 0 0 0 0 0 0 0 0 0 0 0 0 0 0 0
0 0 0 0 0 0 0 0 0 0 0 0 0 0 0 0 0 0 0 0 0 0 0 0 0 0 0 0 0 0 0 0 0 0 0 0 0 0 0 0 0 0 0 0
0 0 0 0 0 0 0 0 0 0 0 0 0 0 0 0 0 0 0 0 0 0 0 0 0 0 0 0 0 0 0 0 0 0 0 0 0 0 0 0 0 0 0 0
0 0 0 0 0 0 0 0 0 0 0 0 0 0 0 0 0 0 0 0 0 0 0 0 0 0 0 0 0 0 0 0 0 0 0 0 0 0 0 0 0 0 0 0
0 0 0 0 0 0 0 0 0 0 0 0 0 0 0 0 0 0 0 0 0 0 0 0 0 0 0 0 0 0 0 0 0 0 0 0 0 0 0 0 0 0 0 0
0 0 0 0 0 0 0 0 0 0 0 0 0 0 0 0 0 0 0 0 0 0 0 0 0 0 0 0 0 0 0 0 0 0 0 0 0 0 0 0 0 0 0 0
0 0 0 0 0 0 0 0 0 0 0 0 0 0 0 0 0 0 0 0 0 0 0 0 0 0 0 0 0 0 0 0 0 0 0 0 0 0 0 0 0 0 0 0
0 0 0 0 0 0 0 0 0 0 0 0 0 0 0 0 0 0 0 0 0 0 0 0 0 0 0 0 0 0 0 0 0 0 0 0 0 0 0 0 0 0 0 0
0 0 0 0 0 0 0 0 0 0 0 0 0 0 0 0 0 0 0 0 0 0 0 0 0 0 0 0 0 0 0 0 0 0 0 0 0 0 0 0 0 0 0 0
0 0 0 0 0 0 0 0 0 0 0 0 0 0 0 0 0 0 0 0 0 0 0 0 0 0 0 0 0 0 0 0 0 0 0 0 0 0 0 0 0 0 0 0
0 0 0 0 0 0 0 0 0 0 18 0 0 0 0 0 0 0 0 0 0 0 0 0 0 0 0 0 0 0 0 0 0 0 0 0 0 0 0 0 0 0 0 0
0 0 0 0 0 0 0 0 0 0 0 3 0 0 0 0 0 0 0 0 0 0 0 0 0 0 0 0 0 0 0 0 0 0 0 0 0 0 0 0 0 0 0 0
0 6 0 0 0 0 0 0 0 0 0 0 0 0 0 0 0 0 0 0 0 0 0 0 0 0 0 0 0 0 0 0 0 0 0 0 0 0 0 0 0 0 0 0
0 1 0 0 0 0 0 0 0 0 0 0 0 0 0 0 0 0 0 0 0 0 0 0 0 0 0 0 0 0 0 0 0 0 0 0 0 0 0 0 0 0 0 0
0 0 0 0 0 0 0 0 0 0 0 0 0 0 0 0 0 0 0 0 0 0 0 0 0 0 0 0 0 0 0 0 0 0 0 0 0 0 0 0 0 0 0 0
0 0 0 0 0 0 0 0 0 1 0 0 0 0 0 0 0 0 0 0 0 0 0 0 0 0 0 0 0 0 0 0 0 0 0 0 0 0 0 0 0 0 0 0
0 2 0 0 0 0 0 0 0 0 0 0 0 0 0 0 0 0 0 0 0 0 0 0 0 0 0 0 0 0 0 0 0 0 0 0 0 0 0 0 0 0 0 0
0 0 0 0 0 0 0 0 0 0 0 0 0 0 0 0 0 0 0 0 0 0 0 0 0 0 0 0 0 0 0 0 0 0 0 0 0 0 0 0 0 0 0 0
0 0 0 0 0 0 0 0 0 0 0 0 0 0 0 0 0 0 0 0 0 0 0 0 0 0 0 0 0 0 0 0 0 0 0 0 0 0 0 0 0 0 0 0
0 0 0 0 0 0 0 0 0 0 0 0 0 0 0 0 0 0 0 0 0 0 0 0 0 0 0 0 0 0 0 0 0 0 0 0 0 0 0 0 0 0 0 0
0 0 0 0 0 0 0 0 0 0 0 0 0 0 0 0 0 0 0 0 0 0 0 0 0 0 0 0 0 0 0 0 0 0 0 0 0 0 0 0 0 0 0 0
0 0 0 0 0 0 0 0 0 0 0 0 0 0 0 0 0 0 0 0 0 0 0 0 0 0 0 0 0 0 0 0 0 0 0 0 0 0 0 0 0 0 0 0
0 0 0 0 0 0 0 0 0 0 0 0 0 0 0 0 0 0 0 0 0 0 0 0 0 0 0 0 0 0 0 0 0 0 0 0 0 0 0 0 0 0 0 0
CIN
0 0 0 0 0 0 0 0 0 0 0 0 0 0 0 0 0 0 0 0 0 0 0 0 0 0 0 0 0 0 0 0 0 0 0 0 0 0 0 0 0 0 0 0
0 0 0 0 0 0 0 0 0 0 0 0 0 0 0 0 0 0 0 0 0 0 0 0 0 0 0 0 0 0 0 0 0 0 0 0 0 0 0 0 0 0 0 0
0 0 0 0 0 0 0 0 0 0 0 0 0 0 0 0 0 0 0 0 0 0 0 0 0 0 0 0 0 0 0 0 0 0 0 0 0 0 0 0 0 0 0 0
0 0 0 0 0 0 0 0 0 0 0 0 0 0 0 0 0 0 0 0 0 0 0 0 0 0 0 0 0 0 0 0 0 0 0 0 0 0 0 0 0 0 0 0
0 0 0 0 0 0 0 0 0 0 0 0 0 0 0 0 0 0 0 0 0 0 0 0 0 0 0 0 0 0 0 0 0 0 0 0 0 0 0 0 0 0 0 0
0 0 0 0 0 0 0 0 0 0 0 0 0 0 0 0 0 0 0 0 0 0 0 0 0 0 0 0 0 0 0 0 0 0 0 0 0 0 0 0 0 0 0 0
0 0 0 0 0 0 0 0 0 0 0 0 0 0 0 0 0 0 0 0 0 0 0 0 0 0 0 0 0 0 0 0 0 0 0 0 0 0 0 0 0 0 0 0
0 0 0 0 0 0 0 0 0 0 0 0 0 0 0 0 0 0 0 0 0 0 0 0 0 0 0 0 0 0 0 0 0 0 0 0 0 0 0 0 0 0 0 0
0 0 0 0 0 0 0 0 0 0 0 0 0 0 0 0 0 0 0 0 0 0 0 0 0 0 0 0 0 0 0 0 0 0 0 0 0 0 0 0 0 0 0 0
0 0 0 0 0 0 0 0 0 0 0 0 0 0 0 0 0 0 0 0 0 0 0 0 0 0 0 0 0 0 0 0 0 0 0 0 0 0 0 0 0 0 0 0
0 0 0 0 0 0 0 0 0 0 0 0 0 0 0 0 0 0 0 0 0 0 0 0 0 0 0 0 0 0 0 0 0 0 0 0 0 0 0 0 0 0 0 0
0 0 0 0 0 0 0 0 0 0 0 0 0 0 0 0 0 0 0 0 0 0 0 0 0 0 0 0 0 0 0 0 0 0 0 0 0 0 0 0 0 0 0 0
0 0 0 0 0 0 0 0 0 0 0 -1 0 0 0 0 0 0 0 0 0 0 0 0 0 0 0 0 0 0 0 0 0 0 0 0 0 0 0 0 0 0 0 0
0 0 0 0 0 0 0 0 0 0 -9 0 0 0 0 0 0 0 0 0 0 0 0 0 0 0 0 0 0 0 0 0 0 0 0 0 0 0 0 0 0 0 0 0
0 0 0 0 0 0 0 0 0 0 -2 -3 0 0 0 0 0 0 0 0 0 0 0 0 0 0 0 0 0 0 0 0 0 0 0 0 0 0 0 0 0 0 0 0
0 -7 -5 0 0 0 0 0 0 0 0 0 0 0 0 0 0 0 0 0 0 0 0 0 0 0 0 0 0 0 0 0 0 0 0 0 0 0 0 0 0 0 0 0
0 -8 -1 0 0 0 -1 0 0 0 0 0 0 0 0 0 0 0 0 0 0 0 0 0 0 0 0 0 0 0 0 0 0 0 0 0 0 0 0 0 0 0 0 0
0 0 0 0 0 0 0 0 0 0 0 0 0 0 0 0 0 0 0 0 0 0 0 0 0 0 0 0 0 0 0 0 0 0 0 0 0 0 0 0 0 0 0 0
0 0 0 0 0 0 0 0 0 -22 0 0 0 0 0 0 0 0 0 0 0 0 0 0 0 0 0 0 0 0 0 0 0 0 0 0 0 0 0 0 0 0 0 0
0 -2 -1 0 0 0 0 0 0 0 0 0 0 0 0 0 0 0 0 0 0 0 0 0 0 0 0 0 0 0 0 0 0 0 0 0 0 0 0 0 0 0 0 0
0 0 0 0 0 0 0 0 0 0 0 0 0 0 0 0 0 0 0 0 0 0 0 0 0 0 0 0 0 0 0 0 0 0 0 0 0 0 0 0 0 0 0 0
0 0 0 0 0 0 0 0 0 0 0 0 0 0 0 0 0 0 0 0 0 0 0 0 0 0 0 0 0 0 0 0 0 0 0 0 0 0 0 0 0 0 0 0
0 0 0 0 0 0 0 0 0 0 0 0 0 0 0 0 0 0 0 0 0 0 0 0 0 0 0 0 0 0 0 0 0 0 0 0 0 0 0 0 0 0 0 0
0 0 0 0 0 0 0 0 0 0 0 0 0 0 0 0 0 0 0 0 0 0 0 0 0 0 0 0 0 0 0 0 0 0 0 0 0 0 0 0 0 0 0 0
0 0 0 0 0 0 0 0 0 0 0 0 0 0 0 0 0 0 0 0 0 0 0 0 0 0 0 0 0 0 0 0 0 0 0 0 0 0 0 0 0 0 0 0
0 0 0 0 0 0 0 0 0 0 0 0 0 0 0 0 0 0 0 0 0 0 0 0 0 0 0 0 0 0 0 0 0 0 0 0 0 0 0 0 0 0 0 0
Wind_Speed
13 13 15 12 13 13 15 21 23 24 21 22 30 33 31 22 20 20 19 17 15 18 18 17 17 16 15 15 15 14 12 10 10 10 12 15 17 17 18 19 19 19 18 18
16 14 15 14 15 15 15 19 21 20 19 20 27 36 36 25 19 19 18 17 17 19 19 18 16 16 16 16 17 16 14 10 10 11 13 17 15 17 17 18 19 19 18 18
18 18 16 13 15 18 20 20 20 22 20 22 28 34 31 30 23 22 20 20 18 18 17 17 16 17 16 15 14 14 13 12 13 12 12 15 15 16 17 18 18 18 17 17
20 19 17 18 20 20 22 22 19 20 23 27 21 33 28 26 25 21 22 22 22 20 19 18 17 16 15 15 15 15 14 13 13 11 13 13 17 18 16 15 15 16 16 16
21 21 20 22 22 19 24 19 21 23 26 28 26 29 23 22 24 24 22 19 20 19 19 19 17 17 15 13 13 14 14 15 15 13 13 14 16 16 13 13 14 14 15 14
22 18 19 21 21 20 20 21 23 25 27 33 27 27 28 21 19 22 22 19 15 14 15 16 16 15 15 15 16 15 15 15 15 14 13 12 12 12 13 12 13 13 13 12
23 23 22 21 22 20 20 24 32 34 33 34 26 30 32 27 26 25 27 26 19 14 12 12 13 13 13 14 14 14 14 15 15 14 12 10 10 10 10 9 10 10 10 10
31 33 24 23 24 25 25 25 32 39 38 36 27 35 27 22 25 28 27 26 22 15 11 10 10 11 11 12 12 13 14 14 14 13 12 11 10 10 9 7 8 8 8 8
29 32 25 24 23 23 27 33 26 35 35 42 36 34 35 34 30 26 27 26 24 18 13 11 11 10 10 10 11 12 13 13 12 12 12 12 11 9 8 8 7 7 7 7
26 35 27 25 24 26 27 23 31 31 43 46 41 39 35 29 26 24 26 25 23 20 17 15 13 12 12 12 13 13 13 12 12 12 12 12 11 9 7 7 7 7 6 5
27 30 30 27 30 29 28 31 29 30 34 43 47 41 25 27 23 23 23 22 21 19 16 13 12 12 12 13 13 13 14 14 13 13 13 11 10 8 8 8 9 9 7 7
27 30 40 39 31 31 34 36 33 39 41 38 45 56 34 37 34 35 37 39 29 24 20 16 15 15 15 15 14 14 14 15 14 14 13 12 11 10 10 8 7 6 6 6
20 29 41 41 38 37 39 39 39 41 41 48 50 52 30 31 31 30 31 29 26 21 21 21 21 22 21 19 17 16 16 17 16 15 14 13 12 12 11 9 7 5 5 5
22 28 30 38 35 29 35 43 44 43 49 53 51 55 53 44 43 38 33 31 29 29 30 30 30 28 25 23 21 19 18 17 16 16 16 15 14 13 12 10 9 8 7 6
27 35 38 41 42 39 40 41 38 44 49 53 56 53 65 55 51 51 49 50 49 44 41 39 37 33 29 27 26 24 22 19 17 18 18 17 15 14 12 11 10 9 8 7
27 34 36 49 49 47 53 50 48 48 48 49 53 60 55 60 52 51 51 50 50 48 46 42 37 33 32 30 28 25 22 19 18 18 18 18 16 15 14 13 12 11 10 9
30 33 36 51 41 44 55 51 50 52 49 48 55 55 59 60 53 53 54 52 53 52 50 46 43 39 34 31 29 28 25 22 20 20 19 18 18 17 17 15 14 14 13 11
24 28 31 38 40 58 47 39 42 48 52 52 52 54 57 62 58 52 49 50 52 53 53 52 48 46 43 37 33 30 28 25 23 22 20 18 17 18 17 17 17 15 14 13
25 27 28 34 40 51 54 36 35 38 49 45 44 45 49 52 52 56 43 40 44 47 48 48 45 43 41 38 34 32 31 28 26 24 22 21 19 19 19 19 18 17 16 15
21 24 24 30 40 53 52 32 29 36 62 41 48 50 47 43 54 51 40 44 44 44 44 46 45 43 39 35 30 31 32 32 31 28 26 22 21 21 20 19 19 18 17 16
18 20 24 29 37 45 37 31 26 36 43 34 28 32 40 48 47 50 51 49 46 44 45 43 43 41 38 33 30 31 30 32 30 29 27 25 24 23 21 20 19 19 18 17
22 23 27 30 37 47 27 26 26 28 33 33 33 37 46 50 52 54 57 53 51 51 47 45 45 44 38 30 29 32 32 31 29 27 28 27 25 23 22 22 20 20 19 18
27 27 32 29 36 29 26 33 30 34 47 53 53 51 47 54 55 54 56 57 54 50 51 50 48 47 40 32 31 33 35 30 29 27 28 28 26 25 25 24 23 22 21 20
28 27 33 36 34 43 51 51 48 48 52 50 50 52 48 53 53 52 51 51 46 51 53 54 53 50 46 38 32 35 35 30 29 29 29 27 28 27 26 26 25 24 23 21
32 31 35 42 49 57 61 55 54 52 48 49 48 50 48 46 49 47 47 46 50 51 52 53 54 54 51 43 38 33 31 29 31 31 30 29 28 29 27 28 27 25 24 22
31 35 40 47 46 48 69 58 48 49 52 52 49 54 50 46 52 48 51 50 51 53 52 52 54 55 53 46 42 34 28 26 29 32 31 32 31 30 29 28 27 25 24 21
Wind_Direction
274 277 266 265 281 292 282 270 271 275 282 282 275 274 276 282 280 278 276 271 270 274 277 278 282 286 288 287 287 289 295 303 311 318 324 327 328 336 337 339 341 344 349 352
269 275 279 280 286 290 291 283 281 290 292 290 287 277 277 281 274 269 268 263 265 274 274 275 277 282 283 284 283 285 293 299 306 308 317 322 327 331 335 340 341 344 347 350
265 272 274 277 281 285 287 285 286 288 296 296 296 288 285 284 275 271 265 266 260 260 259 268 273 274 279 279 282 286 292 300 304 309 316 323 328 334 331 332 336 340 347 351
271 278 273 274 280 285 283 287 292 292 293 287 302 285 294 294 290 284 274 266 265 264 267 270 269 271 270 274 283 288 291 296 303 304 309 309 311 315 323 329 338 343 347 351
272 277 272 273 279 284 282 293 290 290 289 290 290 288 295 304 298 295 293 283 272 264 261 262 264 266 269 271 278 286 289 294 300 300 303 305 311 315 324 326 331 341 347 352
275 290 282 281 286 284 289 291 293 291 288 282 288 284 289 299 306 308 311 306 293 277 266 267 268 265 265 270 275 282 286 291 297 300 299 301 305 309 313 316 321 332 341 352
277 276 283 285 283 285 282 285 282 279 277 277 289 283 282 293 295 302 305 304 305 299 281 266 259 257 259 261 265 272 275 282 292 295 298 298 301 303 304 306 315 327 337 346
267 271 274 275 276 279 276 278 277 275 275 279 290 277 289 303 301 300 303 308 305 303 290 274 258 258 260 264 264 267 270 276 283 289 294 298 301 305 308 306 313 322 330 340
271 274 285 282 278 273 279 272 282 282 282 278 279 284 291 293 294 296 299 304 306 301 295 287 280 270 267 268 266 268 270 275 278 281 289 294 297 298 297 304 312 318 324 330
277 275 280 282 278 278 275 286 275 277 274 274 277 281 280 292 300 305 302 299 303 305 298 294 289 284 279 281 280 278 274 270 275 279 284 288 289 293 296 299 302 307 315 319
272 275 278 277 272 270 272 272 277 278 273 275 275 276 289 293 293 298 305 310 305 305 306 304 299 293 287 286 282 279 275 271 272 274 278 278 277 273 279 288 297 298 301 305
272 277 271 271 280 278 272 269 267 270 274 276 276 272 284 287 289 290 290 295 294 293 296 297 301 301 294 291 288 282 278 273 272 275 274 271 272 273 277 274 281 272 277 292
283 277 273 277 278 274 271 270 271 272 274 271 273 275 288 289 291 292 293 295 294 295 291 291 296 301 294 289 290 287 283 276 274 271 269 268 266 266 269 268 266 260 245 263
292 280 276 275 282 286 278 271 270 270 269 271 270 275 273 277 281 288 293 291 291 292 291 290 291 296 291 287 286 289 286 281 272 268 266 264 263 261 261 260 254 250 254 259
289 281 280 278 278 281 281 280 280 273 271 270 274 274 271 276 279 281 283 283 284 286 287 288 288 288 287 284 284 287 284 280 274 267 264 263 261 259 256 251 246 246 248 253
293 288 287 280 279 280 278 277 276 273 275 277 276 275 276 276 283 282 282 283 284 286 286 286 286 286 282 282 281 280 278 276 270 266 261 259 254 251 247 246 244 245 247 248
291 289 288 284 288 284 276 271 276 275 274 276 274 277 280 280 284 284 283 285 284 283 284 285 284 282 281 279 276 274 274 274 270 267 266 259 253 250 248 245 241 240 241 245
290 291 293 290 289 279 283 287 282 277 278 279 278 281 282 280 282 284 287 289 288 286 285 285 284 281 280 279 275 274 272 268 265 262 259 256 249 246 244 241 237 239 239 238
279 285 289 287 287 287 286 294 293 290 285 285 283 284 285 288 287 281 291 296 295 295 293 289 289 286 283 278 273 269 267 264 261 257 255 250 246 243 240 236 235 237 239 243
286 280 280 292 289 284 290 304 302 300 284 289 287 284 285 288 281 283 293 297 298 301 300 297 295 288 285 282 277 269 266 263 260 257 253 248 242 238 234 233 233 235 239 244
304 292 271 282 288 290 300 306 309 287 294 310 303 295 292 285 283 287 291 292 295 299 299 299 299 296 290 287 278 273 269 263 261 260 255 250 244 240 237 234 234 235 238 247
289 292 290 290 290 293 306 308 295 303 308 308 306 303 299 296 292 287 284 287 290 290 294 297 296 295 295 290 283 277 272 271 266 259 254 250 245 242 241 238 238 237 237 244
286 279 289 282 287 295 303 303 303 304 298 294 297 298 299 295 293 294 290 287 287 287 286 289 292 291 292 291 283 279 279 274 267 261 258 250 244 240 240 237 237 240 241 246
296 294 286 288 280 289 290 293 295 297 295 296 297 296 298 295 294 295 294 291 290 290 288 286 284 285 286 287 286 283 279 272 266 261 257 252 244 240 241 240 239 238 241 246
295 298 293 288 292 291 286 291 293 295 296 295 296 297 298 299 297 299 298 296 294 293 292 287 281 279 281 283 283 283 278 271 267 263 257 252 246 241 240 242 241 240 244 244
294 291 291 291 296 294 277 289 294 294 292 294 296 294 297 298 295 297 295 296 295 292 292 290 282 279 278 279 279 279 274 268 267 263 258 253 249 244 242 241 245 247 252 251